| time (UTC) | temp F | wind direction | speed MPH | gust MPH | rain 1hr in | rain 24hr in | rain mn in | humidity % | barometer mb |
| 20260506134304 | 49 | 100 | 1.0 | 5.0 | 0.00 | 0.10 | 0.19 | 94 | 1016.0 |
| 20260506133303 | 49 | 347 | 1.0 | 2.0 | 0.00 | 0.10 | 0.19 | 95 | 1016.0 |
| 20260506132804 | 49 | 347 | 1.0 | 0.0 | 0.00 | 0.13 | 0.19 | 95 | 1015.6 |
| 20260506132307 | 48 | 145 | 1.0 | 3.0 | 0.00 | 0.16 | 0.19 | 96 | 1015.6 |
| 20260506131804 | 48 | 303 | 1.0 | 3.0 | 0.00 | 0.16 | 0.19 | 96 | 1015.6 |
| 20260506131304 | 48 | 316 | 1.0 | 3.0 | 0.00 | 0.16 | 0.19 | 96 | 1015.6 |
| 20260506130803 | 48 | 303 | 0.0 | 3.0 | 0.00 | 0.16 | 0.19 | 96 | 1015.5 |
| 20260506125803 | 48 | 123 | 1.0 | 0.0 | 0.00 | 0.16 | 0.19 | 96 | 1015.5 |
| 20260506125305 | 48 | 276 | 1.0 | 0.0 | 0.00 | 0.16 | 0.19 | 96 | 1015.5 |
| 20260506124303 | 47 | 310 | 1.0 | 2.0 | 0.00 | 0.16 | 0.19 | 96 | 1015.5 |
| 20260506123304 | 47 | 224 | 1.0 | 6.0 | 0.00 | 0.16 | 0.19 | 96 | 1015.5 |
| 20260506122305 | 47 | 90 | 1.0 | 0.0 | 0.00 | 0.16 | 0.19 | 96 | 1015.0 |
| 20260506121303 | 47 | 313 | 1.0 | 3.0 | 0.00 | 0.16 | 0.19 | 96 | 1015.0 |
| 20260506120303 | 47 | 355 | 1.0 | 5.0 | 0.00 | 0.16 | 0.19 | 97 | 1015.1 |
| 20260506115804 | 47 | 325 | 2.0 | 6.0 | 0.00 | 0.16 | 0.19 | 97 | 1015.1 |
| 20260506115306 | 47 | 347 | 1.0 | 6.0 | 0.00 | 0.16 | 0.19 | 97 | 1015.1 |
| 20260506114810 | 47 | 347 | 1.0 | 6.0 | 0.00 | 0.16 | 0.19 | 97 | 1014.8 |
| 20260506114304 | 47 | 145 | 1.0 | 5.0 | 0.00 | 0.16 | 0.19 | 96 | 1014.8 |
| 20260506113804 | 47 | 145 | 0.0 | 0.0 | 0.00 | 0.16 | 0.19 | 97 | 1014.8 |
| 20260506113303 | 47 | 29 | 0.0 | 0.0 | 0.00 | 0.16 | 0.19 | 96 | 1014.8 |
| 20260506112804 | 47 | 347 | 0.0 | 5.0 | 0.00 | 0.19 | 0.19 | 96 | 1014.3 |
| 20260506112306 | 47 | 132 | 0.0 | 5.0 | 0.00 | 0.19 | 0.19 | 96 | 1014.3 |
| 20260506111804 | 47 | 347 | 0.0 | 0.0 | 0.00 | 0.19 | 0.19 | 96 | 1014.3 |
| 20260506111303 | 47 | 145 | 0.0 | 0.0 | 0.00 | 0.19 | 0.19 | 96 | 1014.3 |
| 20260506110803 | 47 | 123 | 0.0 | 2.0 | 0.00 | 0.19 | 0.19 | 96 | 1014.1 |
| 20260506105804 | 47 | 123 | 1.0 | 3.0 | 0.00 | 0.19 | 0.19 | 96 | 1014.1 |
| 20260506104304 | 47 | 145 | 0.0 | 3.0 | 0.00 | 0.19 | 0.19 | 97 | 1013.2 |
| 20260506103804 | 47 | 145 | 0.0 | 0.0 | 0.00 | 0.19 | 0.19 | 97 | 1013.2 |
| 20260506103303 | 47 | 145 | 1.0 | 0.0 | 0.00 | 0.19 | 0.19 | 97 | 1013.2 |
| 20260506102803 | 47 | 145 | 1.0 | 6.0 | 0.00 | 0.19 | 0.19 | 97 | 1013.3 |
| 20260506102305 | 47 | 134 | 1.0 | 5.0 | 0.00 | 0.19 | 0.19 | 97 | 1013.3 |
| 20260506101304 | 47 | 347 | 0.0 | 0.0 | 0.00 | 0.19 | 0.19 | 97 | 1013.3 |
| 20260506100804 | 47 | 123 | 0.0 | 0.0 | 0.00 | 0.19 | 0.19 | 97 | 1012.8 |
| 20260506100303 | 47 | 10 | 0.0 | 0.0 | 0.00 | 0.19 | 0.19 | 97 | 1012.8 |
| 20260506095804 | 47 | 190 | 0.0 | 5.0 | 0.00 | 0.19 | 0.19 | 97 | 1012.8 |
| 20260506094803 | 47 | 347 | 0.0 | 2.0 | 0.00 | 0.19 | 0.19 | 97 | 1013.3 |
| 20260506094303 | 47 | 16 | 0.0 | 0.0 | 0.00 | 0.19 | 0.19 | 97 | 1013.3 |
| 20260506093303 | 47 | 316 | 0.0 | 0.0 | 0.00 | 0.19 | 0.19 | 97 | 1013.3 |
| 20260506092804 | 47 | 347 | 0.0 | 0.0 | 0.00 | 0.19 | 0.19 | 98 | 1013.8 |
| 20260506092305 | 47 | 83 | 0.0 | 0.0 | 0.00 | 0.19 | 0.19 | 98 | 1013.8 |
| 20260506091804 | 46 | 10 | 0.0 | 0.0 | 0.00 | 0.19 | 0.19 | 98 | 1013.8 |
| 20260506091304 | 46 | 193 | 0.0 | 0.0 | 0.00 | 0.19 | 0.19 | 98 | 1013.8 |
| 20260506090804 | 46 | 325 | 0.0 | 0.0 | 0.00 | 0.19 | 0.19 | 98 | 1013.2 |
| 20260506090304 | 46 | 42 | 0.0 | 5.0 | 0.00 | 0.19 | 0.19 | 98 | 1013.2 |
| 20260506085804 | 46 | 145 | 0.0 | 5.0 | 0.00 | 0.19 | 0.19 | 98 | 1013.2 |
| 20260506085305 | 46 | 347 | 1.0 | 0.0 | 0.00 | 0.19 | 0.19 | 98 | 1013.2 |
| 20260506083803 | 46 | 347 | 0.0 | 2.0 | 0.00 | 0.19 | 0.19 | 98 | 1013.5 |
| 20260506083304 | 46 | 6 | 0.0 | 0.0 | 0.00 | 0.19 | 0.19 | 98 | 1013.5 |
| 20260506082305 | 47 | 347 | 0.0 | 2.0 | 0.00 | 0.19 | 0.19 | 98 | 1013.2 |
| 20260506081804 | 47 | 100 | 0.0 | 2.0 | 0.00 | 0.19 | 0.19 | 98 | 1013.2 |
| 20260506080804 | 47 | 190 | 1.0 | 5.0 | 0.00 | 0.19 | 0.19 | 98 | 1012.6 |
| 20260506073304 | 47 | 240 | 0.0 | 0.0 | 0.00 | 0.19 | 0.19 | 98 | 1012.6 |
| 20260506072804 | 47 | 123 | 0.0 | 0.0 | 0.00 | 0.19 | 0.19 | 98 | 1013.6 |
| 20260506072305 | 47 | 65 | 1.0 | 5.0 | 0.00 | 0.19 | 0.19 | 98 | 1013.6 |
| 20260506071804 | 47 | 325 | 0.0 | 0.0 | 0.00 | 0.19 | 0.19 | 98 | 1013.6 |
| 20260506071304 | 47 | 23 | 1.0 | 2.0 | 0.00 | 0.19 | 0.19 | 98 | 1013.6 |
| 20260506070804 | 47 | 10 | 1.0 | 5.0 | 0.00 | 0.19 | 0.19 | 98 | 1013.4 |
| 20260506070304 | 47 | 0 | 1.0 | 5.0 | 0.00 | 0.19 | 0.19 | 97 | 1013.4 |
| 20260506062305 | 47 | 2 | 0.0 | 0.0 | 0.00 | 0.19 | 0.19 | 97 | 1013.0 |
| 20260506061804 | 47 | 145 | 0.0 | 0.0 | 0.00 | 0.19 | 0.19 | 97 | 1013.0 |
| 20260506061304 | 47 | 145 | 0.0 | 0.0 | 0.00 | 0.19 | 0.19 | 97 | 1013.0 |
| 20260506060804 | 47 | 123 | 0.0 | 0.0 | 0.00 | 0.19 | 0.19 | 97 | 1013.1 |
| 20260506060304 | 47 | 176 | 1.0 | 3.0 | 0.00 | 0.19 | 0.19 | 97 | 1013.1 |
| 20260506044802 | 46 | 10 | 0.0 | 0.0 | 0.00 | 0.19 | 0.19 | 96 | 1013.1 |
| 20260506043803 | 46 | 347 | 0.0 | 0.0 | 0.00 | 0.19 | 0.19 | 96 | 1013.1 |
| 20260506043303 | 46 | 347 | 0.0 | 0.0 | 0.00 | 0.19 | 0.19 | 96 | 1013.1 |
| 20260506042803 | 46 | 123 | 0.0 | 0.0 | 0.00 | 0.19 | 0.19 | 96 | 1012.9 |
| 20260506042305 | 46 | 145 | 1.0 | 5.0 | 0.00 | 0.19 | 0.19 | 96 | 1012.9 |
| 20260506041802 | 46 | 145 | 0.0 | 3.0 | 0.00 | 0.19 | 0.19 | 95 | 1012.9 |
| 20260506041302 | 46 | 190 | 0.0 | 0.0 | 0.00 | 0.19 | 0.19 | 95 | 1012.9 |
| 20260506040803 | 46 | 190 | 1.0 | 5.0 | 0.00 | 0.19 | 0.19 | 95 | 1013.1 |
| 20260506034802 | 46 | 33 | 0.0 | 0.0 | 0.00 | 0.19 | 0.19 | 95 | 1013.4 |
| 20260506034302 | 46 | 3 | 0.0 | 2.0 | 0.00 | 0.19 | 0.19 | 95 | 1013.4 |
| 20260506033802 | 46 | 280 | 0.0 | 2.0 | 0.00 | 0.19 | 0.19 | 95 | 1013.4 |
| 20260506033302 | 46 | 340 | 0.0 | 0.0 | 0.00 | 0.19 | 0.19 | 95 | 1013.4 |
| 20260506032802 | 46 | 347 | 0.0 | 0.0 | 0.00 | 0.19 | 0.19 | 95 | 1012.6 |
| 20260506032305 | 46 | 145 | 0.0 | 0.0 | 0.00 | 0.19 | 0.19 | 95 | 1012.6 |
| 20260506031802 | 46 | 145 | 0.0 | 0.0 | 0.00 | 0.19 | 0.19 | 95 | 1012.6 |
| 20260506031302 | 46 | 115 | 0.0 | 0.0 | 0.00 | 0.19 | 0.19 | 95 | 1012.6 |
| 20260506030802 | 46 | 100 | 0.0 | 0.0 | 0.00 | 0.19 | 0.19 | 95 | 1012.2 |
| 20260506030302 | 46 | 145 | 0.0 | 0.0 | 0.00 | 0.19 | 0.19 | 95 | 1012.2 |
| 20260506025802 | 46 | 100 | 0.0 | 0.0 | 0.00 | 0.19 | 0.19 | 95 | 1012.2 |
| 20260506025305 | 46 | 145 | 0.0 | 0.0 | 0.00 | 0.19 | 0.19 | 95 | 1012.2 |
| 20260506024802 | 46 | 145 | 0.0 | 0.0 | 0.00 | 0.19 | 0.19 | 95 | 1012.3 |
| 20260506024302 | 46 | 72 | 0.0 | 2.0 | 0.00 | 0.19 | 0.19 | 95 | 1012.3 |
| 20260506023803 | 46 | 190 | 0.0 | 0.0 | 0.00 | 0.19 | 0.19 | 95 | 1012.3 |
| 20260506023302 | 46 | 175 | 0.0 | 0.0 | 0.00 | 0.19 | 0.19 | 95 | 1012.3 |
| 20260506022802 | 46 | 347 | 0.0 | 0.0 | 0.00 | 0.19 | 0.19 | 95 | 1012.3 |
| 20260506020802 | 46 | 123 | 0.0 | 0.0 | 0.07 | 0.19 | 0.19 | 94 | 1012.5 |
| 20260506020303 | 46 | 2 | 0.0 | 0.0 | 0.07 | 0.19 | 0.19 | 95 | 1012.5 |
| 20260506015803 | 46 | 145 | 0.0 | 0.0 | 0.07 | 0.19 | 0.19 | 94 | 1012.5 |
| 20260506015305 | 46 | 8 | 0.0 | 0.0 | 0.07 | 0.19 | 0.19 | 94 | 1012.5 |
| 20260506014802 | 46 | 10 | 0.0 | 0.0 | 0.07 | 0.19 | 0.19 | 94 | 1012.4 |
| 20260506014302 | 46 | 135 | 1.0 | 5.0 | 0.07 | 0.19 | 0.19 | 94 | 1012.4 |
| 20260506013302 | 46 | 116 | 0.0 | 0.0 | 0.07 | 0.19 | 0.19 | 93 | 1012.4 |
| 20260506012802 | 46 | 10 | 0.0 | 2.0 | 0.07 | 0.19 | 0.19 | 93 | 1011.6 |
| 20260506012307 | 46 | 330 | 1.0 | 0.0 | 0.07 | 0.19 | 0.19 | 93 | 1011.6 |
| 20260506011302 | 46 | 17 | 1.0 | 5.0 | 0.04 | 0.16 | 0.16 | 93 | 1011.6 |
| 20260506005802 | 46 | 347 | 1.0 | 6.0 | 0.00 | 0.13 | 0.13 | 93 | 1011.8 |
| 20260506005305 | 46 | 357 | 2.0 | 5.0 | 0.00 | 0.13 | 0.13 | 93 | 1011.8 |
| 20260506004802 | 46 | 347 | 3.0 | 6.0 | 0.00 | 0.13 | 0.13 | 93 | 1012.0 |
| 20260506004303 | 46 | 311 | 3.0 | 9.0 | 0.00 | 0.13 | 0.13 | 93 | 1012.0 |
| 20260506003802 | 47 | 280 | 3.0 | 7.0 | 0.00 | 0.13 | 0.13 | 93 | 1012.0 |
| 20260506003302 | 47 | 243 | 1.0 | 5.0 | 0.00 | 0.13 | 0.13 | 93 | 1012.0 |
| 20260506002802 | 47 | 55 | 0.0 | 3.0 | 0.00 | 0.13 | 0.13 | 93 | 1010.8 |
| 20260506002305 | 47 | 347 | 0.0 | 0.0 | 0.00 | 0.13 | 0.13 | 93 | 1010.8 |
| 20260506001802 | 47 | 347 | 2.0 | 5.0 | 0.00 | 0.13 | 0.13 | 93 | 1010.8 |
| 20260506001303 | 47 | 107 | 2.0 | 3.0 | 0.00 | 0.13 | 0.13 | 93 | 1010.8 |
| 20260506000803 | 47 | 303 | 1.0 | 5.0 | 0.00 | 0.13 | 0.13 | 93 | 1010.7 |
| 20260506000302 | 48 | 318 | 0.0 | 3.0 | 0.00 | 0.13 | 0.13 | 93 | 1010.7 |
| 20260505235802 | 47 | 123 | 1.0 | 0.0 | 0.00 | 0.13 | 0.13 | 93 | 1010.7 |
| 20260505235305 | 48 | 347 | 1.0 | 5.0 | 0.00 | 0.13 | 0.13 | 93 | 1010.7 |
| 20260505234802 | 48 | 347 | 2.0 | 2.0 | 0.00 | 0.13 | 0.13 | 92 | 1009.8 |
| 20260505234305 | 50 | 347 | 0.0 | 0.0 | 0.00 | 0.13 | 0.13 | 88 | 1010.0 |
| 20260505233304 | 50 | 0 | 0.0 | 0.0 | 0.00 | 0.13 | 0.13 | 88 | 1010.0 |
| 20260505223803 | 50 | 190 | 1.0 | 3.0 | 0.00 | 0.13 | 0.13 | 87 | 1010.0 |
| 20260505222802 | 50 | 77 | 1.0 | 6.0 | 0.00 | 0.13 | 0.13 | 87 | 1009.5 |
| 20260505221803 | 50 | 145 | 1.0 | 0.0 | 0.00 | 0.13 | 0.13 | 88 | 1009.5 |
| 20260505221303 | 49 | 325 | 2.0 | 5.0 | 0.00 | 0.13 | 0.13 | 88 | 1009.5 |
| 20260505220803 | 49 | 325 | 2.0 | 5.0 | 0.00 | 0.13 | 0.13 | 87 | 1009.9 |
| 20260505220303 | 49 | 75 | 2.0 | 6.0 | 0.00 | 0.13 | 0.13 | 87 | 1009.9 |
| 20260505215305 | 49 | 318 | 1.0 | 5.0 | 0.00 | 0.13 | 0.13 | 87 | 1009.9 |
| 20260505214802 | 49 | 123 | 1.0 | 0.0 | 0.00 | 0.13 | 0.13 | 87 | 1009.6 |
| 20260505213802 | 50 | 145 | 0.0 | 0.0 | 0.00 | 0.13 | 0.13 | 87 | 1009.6 |
| 20260505213302 | 50 | 276 | 1.0 | 3.0 | 0.00 | 0.13 | 0.13 | 88 | 1009.6 |
| 20260505212803 | 50 | 303 | 1.0 | 3.0 | 0.00 | 0.13 | 0.13 | 89 | 1010.3 |
| 20260505212305 | 49 | 347 | 1.0 | 5.0 | 0.00 | 0.13 | 0.13 | 87 | 1010.3 |
| 20260505211802 | 49 | 325 | 2.0 | 0.0 | 0.00 | 0.13 | 0.13 | 87 | 1010.3 |
| 20260505211303 | 49 | 356 | 3.0 | 6.0 | 0.00 | 0.13 | 0.13 | 87 | 1010.3 |
| 20260505210302 | 49 | 347 | 2.0 | 5.0 | 0.00 | 0.13 | 0.13 | 86 | 1010.8 |
| 20260505205305 | 49 | 256 | 3.0 | 9.0 | 0.00 | 0.13 | 0.13 | 85 | 1010.8 |
| 20260505204802 | 49 | 303 | 3.0 | 9.0 | 0.00 | 0.13 | 0.13 | 84 | 1010.4 |
| 20260505204303 | 49 | 6 | 3.0 | 7.0 | 0.00 | 0.13 | 0.13 | 83 | 1010.4 |
| 20260505203803 | 50 | 325 | 3.0 | 5.0 | 0.00 | 0.13 | 0.13 | 82 | 1010.4 |
| 20260505203302 | 50 | 340 | 2.0 | 8.0 | 0.00 | 0.13 | 0.13 | 82 | 1010.4 |
| 20260505202802 | 50 | 303 | 1.0 | 8.0 | 0.00 | 0.13 | 0.13 | 82 | 1011.0 |
| 20260505202306 | 50 | 123 | 1.0 | 5.0 | 0.00 | 0.13 | 0.13 | 82 | 1011.0 |
| 20260505201803 | 50 | 145 | 1.0 | 0.0 | 0.00 | 0.13 | 0.13 | 81 | 1011.0 |
| 20260505201302 | 50 | 331 | 2.0 | 3.0 | 0.00 | 0.13 | 0.13 | 80 | 1011.0 |
| 20260505200803 | 50 | 10 | 3.0 | 5.0 | 0.00 | 0.13 | 0.13 | 79 | 1011.0 |
| 20260505200302 | 50 | 347 | 3.0 | 5.0 | 0.00 | 0.13 | 0.13 | 78 | 1011.0 |
| 20260505195803 | 51 | 77 | 6.0 | 5.0 | 0.00 | 0.13 | 0.13 | 78 | 1011.0 |
| 20260505195305 | 50 | 347 | 7.0 | 15.0 | 0.00 | 0.13 | 0.13 | 78 | 1011.0 |
| 20260505194803 | 51 | 325 | 6.0 | 8.0 | 0.00 | 0.13 | 0.13 | 78 | 1011.0 |
| 20260505194302 | 51 | 186 | 6.0 | 13.0 | 0.00 | 0.13 | 0.13 | 77 | 1011.0 |
| 20260505193803 | 51 | 347 | 6.0 | 13.0 | 0.00 | 0.13 | 0.13 | 77 | 1011.0 |
| 20260505192803 | 53 | 257 | 2.0 | 16.0 | 0.00 | 0.13 | 0.13 | 75 | 1010.1 |
| 20260505192305 | 53 | 331 | 2.0 | 5.0 | 0.00 | 0.13 | 0.13 | 74 | 1010.1 |
| 20260505191803 | 53 | 167 | 3.0 | 5.0 | 0.00 | 0.16 | 0.13 | 74 | 1010.1 |
| 20260505191303 | 53 | 234 | 6.0 | 8.0 | 0.00 | 0.16 | 0.13 | 73 | 1010.1 |
| 20260505190803 | 53 | 347 | 5.0 | 10.0 | 0.00 | 0.16 | 0.13 | 72 | 1010.0 |
| 20260505190302 | 54 | 243 | 2.0 | 10.0 | 0.00 | 0.16 | 0.13 | 72 | 1010.0 |
| 20260505185305 | 54 | 53 | 2.0 | 3.0 | 0.00 | 0.16 | 0.13 | 74 | 1010.0 |
| 20260505184802 | 54 | 190 | 2.0 | 2.0 | 0.00 | 0.16 | 0.13 | 74 | 1010.4 |
| 20260505184302 | 54 | 58 | 2.0 | 8.0 | 0.00 | 0.16 | 0.13 | 74 | 1010.4 |
| 20260505183803 | 54 | 303 | 1.0 | 6.0 | 0.00 | 0.16 | 0.13 | 74 | 1010.4 |
| 20260505183303 | 54 | 340 | 1.0 | 6.0 | 0.00 | 0.16 | 0.13 | 74 | 1010.4 |
| 20260505182803 | 54 | 257 | 1.0 | 2.0 | 0.00 | 0.16 | 0.13 | 75 | 1011.0 |
| 20260505182305 | 53 | 232 | 2.0 | 5.0 | 0.00 | 0.16 | 0.13 | 75 | 1011.0 |
| 20260505181302 | 53 | 347 | 5.0 | 12.0 | 0.00 | 0.16 | 0.13 | 74 | 1011.0 |
| 20260505180303 | 54 | 359 | 5.0 | 13.0 | 0.00 | 0.16 | 0.13 | 74 | 1010.8 |
| 20260505175803 | 54 | 10 | 4.0 | 9.0 | 0.00 | 0.16 | 0.13 | 73 | 1010.8 |
| 20260505175305 | 54 | 336 | 3.0 | 9.0 | 0.00 | 0.16 | 0.13 | 73 | 1010.8 |
| 20260505174803 | 55 | 347 | 2.0 | 6.0 | 0.00 | 0.16 | 0.13 | 73 | 1010.5 |
| 20260505174303 | 55 | 301 | 1.0 | 6.0 | 0.00 | 0.16 | 0.13 | 73 | 1010.5 |
| 20260505173802 | 55 | 190 | 1.0 | 3.0 | 0.00 | 0.16 | 0.13 | 72 | 1010.5 |
| 20260505173303 | 55 | 123 | 1.0 | 0.0 | 0.00 | 0.16 | 0.13 | 72 | 1010.5 |
| 20260505172802 | 55 | 190 | 2.0 | 0.0 | 0.00 | 0.16 | 0.13 | 70 | 1010.3 |
| 20260505172305 | 55 | 10 | 2.0 | 6.0 | 0.00 | 0.16 | 0.13 | 70 | 1010.3 |
| 20260505171802 | 56 | 257 | 1.0 | 6.0 | 0.00 | 0.16 | 0.13 | 70 | 1010.3 |
| 20260505171303 | 56 | 271 | 1.0 | 3.0 | 0.00 | 0.16 | 0.13 | 71 | 1010.3 |
| 20260505170803 | 56 | 123 | 1.0 | 2.0 | 0.00 | 0.16 | 0.13 | 70 | 1009.8 |
| 20260505170303 | 57 | 208 | 1.0 | 0.0 | 0.00 | 0.16 | 0.13 | 69 | 1009.8 |
| 20260505165803 | 57 | 303 | 1.0 | 5.0 | 0.00 | 0.16 | 0.13 | 69 | 1009.8 |
| 20260505165306 | 57 | 208 | 0.0 | 5.0 | 0.00 | 0.16 | 0.13 | 69 | 1009.8 |
| 20260505164803 | 57 | 145 | 1.0 | 0.0 | 0.00 | 0.16 | 0.13 | 68 | 1010.0 |
| 20260505163302 | 57 | 160 | 1.0 | 6.0 | 0.00 | 0.16 | 0.13 | 68 | 1010.0 |
| 20260505162803 | 57 | 347 | 1.0 | 2.0 | 0.00 | 0.16 | 0.13 | 68 | 1010.3 |
| 20260505162305 | 57 | 142 | 1.0 | 3.0 | 0.00 | 0.16 | 0.13 | 69 | 1010.3 |
| 20260505161802 | 57 | 347 | 1.0 | 3.0 | 0.00 | 0.16 | 0.13 | 68 | 1010.3 |
| 20260505161303 | 57 | 258 | 1.0 | 0.0 | 0.00 | 0.16 | 0.13 | 68 | 1010.3 |
| 20260505160803 | 57 | 145 | 2.0 | 5.0 | 0.00 | 0.16 | 0.13 | 69 | 1009.8 |
| 20260505160303 | 57 | 103 | 2.0 | 7.0 | 0.00 | 0.16 | 0.13 | 69 | 1009.8 |
| 20260505153303 | 56 | 121 | 2.0 | 8.0 | 0.00 | 0.16 | 0.13 | 73 | 1009.6 |
| 20260505152803 | 56 | 325 | 1.0 | 8.0 | 0.00 | 0.16 | 0.13 | 76 | 1009.4 |
| 20260505152305 | 56 | 167 | 2.0 | 3.0 | 0.00 | 0.16 | 0.13 | 77 | 1009.4 |
| 20260505151803 | 54 | 33 | 3.0 | 8.0 | 0.00 | 0.16 | 0.13 | 76 | 1009.4 |
| 20260505151303 | 55 | 334 | 2.0 | 8.0 | 0.00 | 0.16 | 0.13 | 77 | 1009.4 |
| 20260505150803 | 54 | 145 | 2.0 | 7.0 | 0.00 | 0.16 | 0.13 | 78 | 1009.7 |
| 20260505150302 | 54 | 116 | 2.0 | 3.0 | 0.00 | 0.16 | 0.13 | 78 | 1009.7 |
| 20260505140304 | 52 | 210 | 1.0 | 7.0 | 0.00 | 0.16 | 0.13 | 91 | 1009.3 |